Tracking 34719 objects as of 12-Jul-2026
HD Live streaming from Space Station
objects crossing your sky now

STARLINK-37777

Track STARLINK-37777 now!
10-day predictions
STARLINK-37777 is classified as:


NORAD ID: 69349
Int'l Code: 2026-122W
Perigee: 472.6 km
Apogee: 472.8 km
Inclination: 97.3 °
Period: 93.9 minutes
Semi major axis: 6843 km
RCS: Unknown
Launch date: June 3, 2026
Source: United States (US)
Launch site: AIR FORCE WESTERN TEST RANGE (AFWTR)
Your satellite tracking list
Your tracking list is empty




NASA's NSSDC Master Catalog

Two Line Element Set (TLE):
1 69349U 26122W   26192.63982080  .00010833  00000-0  33734-3 0  9998
2 69349  97.2858 222.3287 0000150 296.4100  63.7127 15.33450946  5940
Source of the keplerian elements: AFSPC